FW6618 Weather Reports


Display with metric or nautical units.
time (UTC)temp
F
wind
direction
speed
MPH
gust
MPH
rain 1hr
in
rain 24hr
in
rain mn
in
humidity
%
barometer
mb
20260904233524 67 48 0.0 1.0 0.00 0.00 0.00 90 1012.8
20260904233043 67 0 0.0 1.0 0.00 0.00 0.00 90 1012.7
20260904232524 67 0 0.0 1.0 0.00 0.00 0.00 89 1012.7
20260904232024 67 0 0.0 1.0 0.00 0.00 0.00 90 1012.7
20260904231543 68 0 0.0 1.0 0.00 0.00 0.00 89 1012.7
20260904231023 68 0 0.0 1.0 0.00 0.00 0.00 89 1012.8
20260904230520 68 49 0.0 1.0 0.00 0.00 0.00 88 1012.6
20260904230043 68 50 0.0 1.0 0.00 0.00 0.00 88 1012.5
20260904225519 69 0 0.0 0.0 0.00 0.00 0.00 88 1012.6
20260904225024 69 0 0.0 0.0 0.00 0.00 0.00 88 1012.6
20260904224541 69 0 0.0 0.0 0.00 0.00 0.00 88 1012.5
20260904224024 70 0 0.0 0.0 0.00 0.00 0.00 87 1012.4
20260904223524 70 0 0.0 0.0 0.00 0.00 0.00 87 1012.5
20260904223044 70 0 0.0 0.0 0.00 0.00 0.00 87 1012.5
20260904222525 70 0 0.0 1.0 0.00 0.00 0.00 85 1012.4
20260904222023 71 340 0.0 1.0 0.00 0.00 0.00 84 1012.5
20260904221550 71 0 0.0 1.0 0.00 0.00 0.00 83 1012.4
20260904221024 72 0 0.0 2.0 0.00 0.00 0.00 82 1012.5
20260904220521 72 340 0.0 2.0 0.00 0.00 0.00 81 1012.5
20260904220044 73 340 0.0 2.0 0.00 0.00 0.00 79 1012.4
20260904215518 73 311 0.0 1.0 0.00 0.00 0.00 80 1012.4
20260904215024 73 0 0.0 1.0 0.00 0.00 0.00 80 1012.3
20260904214548 74 302 0.0 1.0 0.00 0.00 0.00 80 1012.3
20260904214024 74 75 0.0 1.0 0.00 0.00 0.00 75 1012.3
20260904213527 74 74 0.0 4.0 0.00 0.00 0.00 76 1012.4
20260904213045 73 75 0.0 4.0 0.00 0.00 0.00 70 1012.5
20260904212524 73 310 0.0 3.0 0.00 0.00 0.00 74 1012.6
20260904212021 73 81 1.0 3.0 0.00 0.00 0.00 73 1012.6
20260904211545 73 0 1.0 4.0 0.00 0.00 0.00 76 1012.6
20260904211021 73 279 1.0 4.0 0.00 0.00 0.00 75 1012.6
20260904210521 73 345 1.0 2.0 0.00 0.00 0.00 80 1012.6
20260904210041 73 0 0.0 4.0 0.00 0.00 0.00 76 1012.6
20260904205525 74 289 0.0 4.0 0.00 0.00 0.00 69 1012.5
20260904205025 74 283 1.0 6.0 0.00 0.00 0.00 66 1012.5
20260904204543 74 247 1.0 6.0 0.00 0.00 0.00 65 1012.6
20260904204024 75 150 2.0 6.0 0.00 0.00 0.00 63 1012.5
20260904203524 76 284 0.0 3.0 0.00 0.00 0.00 64 1012.4
20260904203047 77 0 0.0 5.0 0.00 0.00 0.00 64 1012.4
20260904202525 77 189 2.0 5.0 0.00 0.00 0.00 61 1012.4
20260904202027 77 75 1.0 4.0 0.00 0.00 0.00 61 1012.5
20260904201546 76 321 2.0 4.0 0.00 0.00 0.00 61 1012.4
20260904201024 76 304 1.0 5.0 0.00 0.00 0.00 62 1012.6
20260904200528 76 200 1.0 5.0 0.00 0.00 0.00 64 1012.5
20260904200045 76 177 2.0 6.0 0.00 0.00 0.00 60 1012.4
20260904195525 77 268 1.0 7.0 0.00 0.00 0.00 61 1012.4
20260904195022 77 291 2.0 7.0 0.00 0.00 0.00 60 1012.5
20260904194551 77 117 2.0 7.0 0.00 0.00 0.00 65 1012.5
20260904194019 76 111 1.0 4.0 0.00 0.00 0.00 61 1012.5
20260904193519 77 210 1.0 4.0 0.00 0.00 0.00 60 1012.6
20260904193040 77 286 2.0 6.0 0.00 0.00 0.00 59 1012.7
20260904192519 78 283 2.0 11.0 0.00 0.00 0.00 60 1012.7
20260904192028 78 191 2.0 11.0 0.00 0.00 0.00 61 1012.7
20260904191543 78 188 2.0 11.0 0.00 0.00 0.00 57 1012.7
20260904191024 78 245 2.0 9.0 0.00 0.00 0.00 59 1012.7
20260904190526 78 25 2.0 9.0 0.00 0.00 0.00 58 1012.8
20260904190045 78 326 3.0 9.0 0.00 0.00 0.00 59 1012.6
20260904185524 79 77 2.0 5.0 0.00 0.00 0.00 57 1012.7
20260904185025 79 348 2.0 5.0 0.00 0.00 0.00 59 1012.7
20260904184541 79 340 2.0 4.0 0.00 0.00 0.00 57 1012.5
20260904184019 79 60 1.0 6.0 0.00 0.00 0.00 63 1012.7
20260904183518 78 158 1.0 8.0 0.00 0.00 0.00 63 1013.0
20260904183041 77 98 3.0 8.0 0.00 0.00 0.00 63 1012.8
20260904182521 77 285 2.0 5.0 0.00 0.00 0.00 67 1013.0
20260904182026 77 150 1.0 5.0 0.00 0.00 0.00 64 1012.9
20260904181555 77 93 1.0 9.0 0.00 0.00 0.00 63 1013.1
20260904181023 77 193 2.0 9.0 0.00 0.00 0.00 61 1013.1
20260904180526 78 360 3.0 9.0 0.00 0.00 0.00 60 1013.0
20260904180051 78 260 3.0 9.0 0.00 0.00 0.00 59 1013.1
20260904175517 77 134 3.0 7.0 0.00 0.00 0.00 60 1013.0
20260904175017 77 277 2.0 5.0 0.00 0.00 0.00 62 1013.1
20260904174546 77 292 1.0 6.0 0.00 0.00 0.00 63 1013.2
20260904174024 77 236 2.0 6.0 0.00 0.00 0.00 63 1013.1
20260904173524 77 97 2.0 6.0 0.00 0.00 0.00 64 1013.0
20260904173044 77 125 2.0 5.0 0.00 0.00 0.00 65 1013.1
20260904172523 78 281 1.0 6.0 0.00 0.00 0.00 63 1013.1
20260904172020 78 21 2.0 6.0 0.00 0.00 0.00 64 1012.9
20260904171610 78 104 2.0 7.0 0.00 0.00 0.00 62 1013.0
20260904171021 77 193 3.0 7.0 0.00 0.00 0.00 67 1012.9
20260904170519 77 279 3.0 7.0 0.00 0.00 0.00 61 1013.2
20260904170045 77 286 2.0 5.0 0.00 0.00 0.00 65 1013.1
20260904165520 77 0 2.0 6.0 0.00 0.00 0.00 63 1013.2
20260904165025 77 254 1.0 6.0 0.00 0.00 0.00 67 1013.3
20260904164541 76 321 2.0 6.0 0.00 0.00 0.00 70 1013.3
20260904164023 75 161 1.0 5.0 0.00 0.00 0.00 70 1013.2
20260904163523 74 89 0.0 4.0 0.00 0.00 0.00 73 1013.4
20260904163043 74 220 2.0 6.0 0.00 0.00 0.00 70 1013.4
20260904162520 75 168 2.0 7.0 0.00 0.00 0.00 68 1013.5
20260904162021 76 155 1.0 7.0 0.00 0.00 0.00 71 1013.4
20260904161552 76 286 2.0 7.0 0.00 0.00 0.00 72 1013.7
20260904161023 76 131 1.0 5.0 0.00 0.00 0.00 71 1013.6
20260904160519 75 155 1.0 6.0 0.00 0.00 0.00 71 1013.7
20260904160042 75 79 2.0 6.0 0.00 0.00 0.00 70 1013.6
20260904155522 75 221 1.0 6.0 0.00 0.00 0.00 70 1013.6
20260904155028 75 311 1.0 4.0 0.00 0.00 0.00 72 1013.7
20260904154543 74 28 2.0 7.0 0.00 0.00 0.00 71 1013.8
20260904154028 74 139 1.0 9.0 0.00 0.00 0.00 73 1013.8
20260904153527 74 283 1.0 9.0 0.00 0.00 0.00 73 1013.9
20260904153053 73 311 2.0 5.0 0.00 0.00 0.00 74 1013.9
20260904152521 73 191 2.0 8.0 0.00 0.00 0.00 74 1013.9
20260904152021 73 219 3.0 8.0 0.00 0.00 0.00 73 1013.9
20260904151544 73 321 2.0 7.0 0.00 0.00 0.00 75 1014.0
20260904151024 73 339 3.0 7.0 0.00 0.00 0.00 76 1013.9
20260904150518 73 313 1.0 4.0 0.00 0.00 0.00 79 1013.9
20260904150041 72 282 1.0 6.0 0.00 0.00 0.00 77 1013.9
20260904145525 72 64 1.0 6.0 0.00 0.00 0.00 79 1014.0
20260904145029 72 360 1.0 6.0 0.00 0.00 0.00 77 1014.0
20260904144544 72 15 2.0 4.0 0.00 0.00 0.00 79 1013.8
20260904144027 71 269 2.0 4.0 0.00 0.00 0.00 80 1013.7
20260904143525 71 229 1.0 5.0 0.00 0.00 0.00 82 1013.7
20260904143044 71 283 2.0 5.0 0.00 0.00 0.00 79 1013.7
20260904142523 71 273 1.0 4.0 0.00 0.00 0.00 81 1013.8
20260904142020 71 291 0.0 5.0 0.00 0.00 0.00 82 1013.8
20260904141542 71 271 2.0 5.0 0.00 0.00 0.00 80 1013.9
20260904141019 71 250 1.0 5.0 0.00 0.00 0.00 80 1013.9
20260904140518 70 0 1.0 5.0 0.00 0.00 0.00 82 1013.8
20260904140045 70 265 2.0 5.0 0.00 0.00 0.00 83 1013.8
20260904135531 70 248 1.0 3.0 0.00 0.00 0.00 85 1013.6
20260904135026 69 229 1.0 3.0 0.00 0.00 0.00 88 1013.9
20260904134550 69 191 0.0 3.0 0.00 0.00 0.00 88 1013.7
20260904134024 68 16 1.0 3.0 0.00 0.00 0.00 89 1013.8
20260904133521 68 303 0.0 3.0 0.00 0.00 0.00 91 1013.7
20260904133056 67 0 1.0 3.0 0.00 0.00 0.00 93 1013.7
20260904132521 67 141 0.0 2.0 0.00 0.00 0.00 97 1013.8
20260904132019 66 169 0.0 2.0 0.00 0.00 0.00 97 1013.7
20260904131537 65 115 1.0 2.0 0.00 0.00 0.00 98 1013.7
20260904131024 64 217 1.0 3.0 0.00 0.00 0.00 98 1013.8
20260904130525 64 0 0.0 3.0 0.00 0.00 0.00 98 1013.9
20260904130044 63 192 1.0 3.0 0.00 0.00 0.00 98 1013.9
20260904125524 62 197 0.0 4.0 0.00 0.00 0.00 98 1013.9
20260904125022 62 257 1.0 4.0 0.00 0.00 0.00 98 1014.1
20260904124542 61 195 2.0 4.0 0.00 0.00 0.00 98 1014.1
20260904124021 61 333 1.0 4.0 0.00 0.00 0.00 98 1014.0
20260904123525 61 296 1.0 4.0 0.00 0.00 0.00 98 1014.1
20260904123041 61 183 1.0 3.0 0.00 0.00 0.00 98 1014.1
20260904122526 60 0 1.0 3.0 0.00 0.00 0.00 98 1014.0
20260904122018 60 277 0.0 2.0 0.00 0.00 0.00 98 1014.2
20260904121540 60 139 0.0 2.0 0.00 0.00 0.00 98 1014.1
20260904121025 59 0 0.0 0.0 0.00 0.00 0.00 98 1014.1
20260904120523 59 0 0.0 0.0 0.00 0.00 0.00 98 1014.1
20260904120053 59 0 0.0 0.0 0.00 0.00 0.00 98 1013.9
20260904115521 59 0 0.0 0.0 0.00 0.00 0.00 98 1013.8
20260904115024 58 0 0.0 0.0 0.00 0.00 0.00 98 1013.8
20260904114546 58 0 0.0 0.0 0.00 0.00 0.00 98 1013.8
20260904114026 58 0 0.0 0.0 0.00 0.00 0.00 98 1013.9
20260904113522 58 0 0.0 0.0 0.00 0.00 0.00 98 1013.9
20260904113040 58 0 0.0 0.0 0.00 0.00 0.00 98 1013.8
20260904112520 58 0 0.0 0.0 0.00 0.00 0.00 98 1013.7
20260904112019 58 0 0.0 0.0 0.00 0.00 0.00 98 1013.6
20260904111539 58 0 0.0 0.0 0.00 0.00 0.00 98 1013.6
20260904111018 57 0 0.0 0.0 0.00 0.00 0.00 98 1013.7
20260904110522 57 0 0.0 0.0 0.00 0.00 0.00 98 1013.8
20260904110043 57 0 0.0 0.0 0.00 0.00 0.00 98 1013.7
20260904105521 57 0 0.0 0.0 0.00 0.01 0.00 98 1013.7
20260904105024 57 0 0.0 0.0 0.00 0.01 0.00 98 1013.5
20260904104604 57 0 0.0 0.0 0.00 0.01 0.00 98 1013.5
20260904104028 57 0 0.0 0.0 0.00 0.01 0.00 98 1013.6
20260904103521 57 0 0.0 0.0 0.00 0.01 0.00 98 1013.4
20260904103040 57 0 0.0 0.0 0.00 0.01 0.00 98 1013.4
20260904102524 57 0 0.0 0.0 0.00 0.01 0.00 98 1013.3
20260904102025 57 0 0.0 0.0 0.00 0.01 0.00 98 1013.4
20260904101543 57 0 0.0 0.0 0.00 0.01 0.00 98 1013.4
20260904101017 57 0 0.0 0.0 0.00 0.01 0.00 98 1013.3
20260904100521 57 0 0.0 0.0 0.00 0.01 0.00 98 1013.3
20260904100056 57 0 0.0 0.0 0.00 0.01 0.00 98 1013.3
20260904095523 57 0 0.0 0.0 0.00 0.01 0.00 98 1013.2
20260904095021 57 0 0.0 0.0 0.00 0.01 0.00 98 1013.1
20260904094551 57 0 0.0 0.0 0.00 0.01 0.00 98 1013.1
20260904094020 57 0 0.0 0.0 0.00 0.01 0.00 98 1013.1
20260904093524 57 0 0.0 0.0 0.00 0.01 0.00 98 1013.1
20260904093039 57 0 0.0 0.0 0.00 0.01 0.00 98 1013.1
20260904092521 57 0 0.0 0.0 0.00 0.01 0.00 98 1013.1
20260904092019 57 0 0.0 0.0 0.00 0.01 0.00 98 1013.0
20260904091540 58 0 0.0 0.0 0.00 0.01 0.00 98 1013.0
20260904091021 58 0 0.0 0.0 0.00 0.01 0.00 98 1013.1
20260904090528 58 0 0.0 0.0 0.00 0.01 0.00 98 1013.1
20260904090041 58 0 0.0 0.0 0.00 0.01 0.00 98 1013.0
20260904085521 58 0 0.0 0.0 0.00 0.01 0.00 98 1013.1
20260904085027 58 0 0.0 0.0 0.00 0.01 0.00 98 1013.0
20260904084541 58 0 0.0 0.0 0.00 0.01 0.00 98 1012.9
20260904084019 58 0 0.0 0.0 0.00 0.01 0.00 98 1012.9
20260904083519 58 0 0.0 0.0 0.00 0.01 0.00 98 1013.0
20260904083047 58 0 0.0 0.0 0.00 0.01 0.00 98 1013.0
20260904082527 59 0 0.0 0.0 0.00 0.01 0.00 98 1012.9
20260904082022 59 0 0.0 0.0 0.00 0.01 0.00 98 1012.9
20260904081543 59 0 0.0 0.0 0.00 0.01 0.00 98 1013.0
20260904081023 59 0 0.0 0.0 0.00 0.01 0.00 98 1012.9
20260904080519 59 0 0.0 0.0 0.00 0.01 0.00 98 1013.0
20260904080043 59 0 0.0 0.0 0.00 0.01 0.00 98 1013.0
20260904075518 59 0 0.0 0.0 0.00 0.01 0.00 98 1012.9
20260904075023 59 0 0.0 0.0 0.00 0.01 0.00 98 1012.9
20260904074540 59 0 0.0 0.0 0.00 0.01 0.00 98 1013.0
20260904074023 59 0 0.0 0.0 0.00 0.01 0.00 98 1013.0
20260904073517 59 0 0.0 0.0 0.00 0.01 0.00 98 1012.8
20260904073038 59 0 0.0 0.0 0.00 0.01 0.00 98 1013.0
20260904072524 59 0 0.0 0.0 0.00 0.01 0.00 98 1013.0
20260904072019 59 0 0.0 0.0 0.00 0.01 0.00 98 1013.1
20260904071545 59 0 0.0 0.0 0.00 0.01 0.00 98 1013.3
20260904071021 59 0 0.0 0.0 0.00 0.01 0.00 98 1013.2
20260904070521 59 0 0.0 0.0 0.00 0.01 0.00 98 1013.4
20260904070044 59 0 0.0 0.0 0.00 0.01 0.00 98 1013.4
20260904065528 59 0 0.0 0.0 0.00 0.01 0.00 98 1013.3
20260904065019 59 0 0.0 0.0 0.00 0.01 0.00 98 1013.4
20260904064541 59 0 0.0 0.0 0.00 0.01 0.00 98 1013.4
20260904064022 59 0 0.0 0.0 0.00 0.01 0.00 98 1013.3
20260904063519 59 0 0.0 0.0 0.00 0.01 0.00 98 1013.4
20260904063047 59 0 0.0 0.0 0.00 0.01 0.00 98 1013.3
20260904062526 59 0 0.0 0.0 0.00 0.01 0.00 98 1013.3
20260904062023 59 0 0.0 0.0 0.00 0.01 0.00 98 1013.3
20260904061540 59 0 0.0 0.0 0.00 0.01 0.00 98 1013.3
20260904061022 59 0 0.0 0.0 0.00 0.01 0.00 98 1013.3
20260904060522 59 0 0.0 0.0 0.00 0.01 0.00 98 1013.4
20260904060109 59 0 0.0 0.0 0.00 0.01 0.00 98 1013.3
20260904055519 59 0 0.0 0.0 0.00 0.01 0.00 98 1013.4
20260904055024 59 0 0.0 0.0 0.00 0.01 0.00 98 1013.5
20260904054540 59 0 0.0 0.0 0.00 0.01 0.00 98 1013.6
20260904054018 59 0 0.0 0.0 0.00 0.01 0.00 98 1013.5
20260904053522 59 0 0.0 0.0 0.00 0.01 0.00 98 1013.6
20260904053126 59 0 0.0 0.0 0.00 0.01 0.00 98 1013.7
20260904052519 59 0 0.0 0.0 0.00 0.01 0.00 98 1013.9
20260904052021 60 0 0.0 0.0 0.00 0.01 0.00 98 1014.1
20260904051602 60 0 0.0 0.0 0.00 0.01 0.00 98 1014.0
20260904051024 60 0 0.0 0.0 0.00 0.01 0.00 98 1014.0
20260904050521 60 0 0.0 0.0 0.00 0.01 0.00 98 1014.0
20260904050041 60 0 0.0 0.0 0.00 0.01 0.00 98 1014.1
20260904045519 60 0 0.0 0.0 0.00 0.01 0.00 98 1014.1
20260904045019 60 0 0.0 0.0 0.00 0.01 0.00 98 1014.1
20260904044619 60 0 0.0 0.0 0.00 0.01 0.00 98 1014.1
20260904044020 60 0 0.0 0.0 0.00 0.01 0.00 98 1014.2
20260904043519 60 0 0.0 0.0 0.00 0.01 0.00 98 1014.2
20260904043043 60 0 0.0 1.0 0.00 0.01 0.00 98 1014.2
20260904042523 61 0 0.0 1.0 0.00 0.01 0.00 98 1014.2
20260904042025 61 0 0.0 1.0 0.00 0.01 0.00 97 1014.1
20260904041543 61 0 0.0 1.0 0.00 0.01 0.00 98 1014.1
20260904041024 61 102 0.0 1.0 0.00 0.01 0.00 97 1014.2
20260904040524 61 0 0.0 1.0 0.00 0.01 0.00 97 1014.1
20260904040050 61 0 0.0 1.0 0.00 0.01 0.00 97 1014.1
20260904035525 61 0 0.0 1.0 0.00 0.01 0.01 97 1014.3
20260904035026 61 0 0.0 1.0 0.00 0.01 0.01 97 1014.2
20260904034541 61 0 0.0 1.0 0.00 0.01 0.01 97 1014.2
20260904034019 62 0 0.0 2.0 0.00 0.01 0.01 97 1014.2
20260904033525 62 0 0.0 2.0 0.00 0.01 0.01 97 1014.2
20260904033057 62 0 0.0 2.0 0.00 0.01 0.01 97 1014.2
20260904032520 62 0 0.0 2.0 0.00 0.01 0.01 97 1014.1
20260904032023 62 124 0.0 2.0 0.00 0.01 0.01 97 1014.3
20260904031544 62 49 0.0 2.0 0.00 0.01 0.01 97 1014.3
20260904031023 62 326 0.0 2.0 0.00 0.01 0.01 97 1014.4
20260904030524 62 0 0.0 2.0 0.00 0.01 0.01 97 1014.5
20260904030042 63 0 0.0 2.0 0.00 0.01 0.01 97 1014.6
20260904025524 63 80 0.0 2.0 0.00 0.01 0.01 97 1014.4
20260904025024 63 0 0.0 2.0 0.00 0.01 0.01 97 1014.5
20260904024543 63 0 0.0 1.0 0.00 0.01 0.01 97 1014.4
20260904024024 63 0 0.0 1.0 0.00 0.01 0.01 97 1014.6
20260904023524 63 321 0.0 1.0 0.00 0.01 0.01 97 1014.8
20260904023054 63 0 0.0 1.0 0.00 0.01 0.01 97 1014.7
20260904022524 63 0 0.0 1.0 0.00 0.01 0.01 97 1014.6
20260904022025 64 0 0.0 0.0 0.00 0.01 0.01 97 1014.6
20260904021543 64 0 0.0 0.0 0.00 0.01 0.01 97 1014.6
20260904021022 64 0 0.0 0.0 0.00 0.01 0.01 97 1014.7
20260904020523 64 0 0.0 0.0 0.00 0.01 0.01 97 1014.8
20260904020047 64 0 0.0 0.0 0.00 0.01 0.01 97 1014.7
20260904015521 64 0 0.0 0.0 0.00 0.01 0.01 96 1014.6
20260904015022 65 0 0.0 0.0 0.00 0.01 0.01 96 1014.6
20260904014542 65 0 0.0 0.0 0.00 0.01 0.01 96 1014.6
20260904014024 65 0 0.0 0.0 0.00 0.01 0.01 96 1014.6
20260904013523 65 0 0.0 1.0 0.00 0.01 0.01 96 1014.9
20260904013044 65 0 0.0 1.0 0.00 0.01 0.01 96 1014.6
20260904012525 65 0 0.0 1.0 0.00 0.01 0.01 96 1014.6
20260904012025 65 322 0.0 2.0 0.00 0.01 0.01 96 1014.6
20260904011543 66 0 0.0 2.0 0.00 0.01 0.01 96 1014.7
20260904011023 66 348 0.0 2.0 0.00 0.01 0.01 96 1014.6
20260904010527 66 342 1.0 2.0 0.00 0.01 0.01 96 1014.6
20260904010039 66 345 0.0 2.0 0.00 0.01 0.01 95 1014.6
20260904005521 66 56 1.0 2.0 0.00 0.01 0.01 95 1014.6
20260904005020 67 94 0.0 2.0 0.00 0.01 0.01 95 1014.5
20260904004543 67 0 0.0 3.0 0.00 0.01 0.01 95 1014.6
20260904004023 67 162 1.0 3.0 0.00 0.01 0.01 95 1014.5
20260904003526 67 356 1.0 2.0 0.00 0.01 0.01 95 1014.5
20260904003041 67 302 0.0 4.0 0.00 0.01 0.01 94 1014.5
20260904002524 67 320 1.0 4.0 0.00 0.01 0.01 94 1014.4
20260904002026 68 173 0.0 2.0 0.00 0.01 0.01 93 1014.1
20260904001541 68 173 0.0 3.0 0.00 0.01 0.01 93 1014.1
20260904001023 69 264 0.0 3.0 0.00 0.01 0.01 93 1014.0
20260904000521 69 234 1.0 3.0 0.00 0.01 0.01 92 1013.9
20260904000108 69 61 0.0 2.0 0.00 0.01 0.01 93 1013.9
20260903235523 69 285 1.0 2.0 0.00 0.01 0.01 93 1013.9
20260903235021 69 211 0.0 2.0 0.00 0.01 0.01 92 1013.7
20260903234541 69 246 1.0 5.0 0.00 0.01 0.01 92 1013.7
20260903234023 69 320 0.0 5.0 0.00 0.01 0.01 94 1013.7